Whiteville, NC

4:27 AM EDT on June 26, 2017 (GMT -0400)
Columbus County Municipal

Weather History for KCPC - October, 2013

Change the Weather History Date:

Wednesday, October 9, 2013

  Actual Average (KCRE) Record (KCRE)
Temperature  
Mean Temperature 62 °F -  
Max Temperature 66 °F 74 °F 89 °F (2007)
Min Temperature 57 °F 56 °F 41 °F (2000)
Degree Days  
Heating Degree Days 4    
Growing Degree Days 12 (Base 50)    
Moisture  
Dew Point 55 °F    
Average Humidity 81    
Maximum Humidity 90    
Minimum Humidity 72    
Precipitation  
Precipitation 0.01 in - - ()
Sea Level Pressure  
Sea Level Pressure 30.05 in    
Wind  
Wind Speed 8 mph (North)    
Max Wind Speed 13 mph    
Max Gust Speed 20 mph    
Visibility 10 miles    
Events Rain    
Averages and records for this station are not official NWS values.
T = Trace of Precipitation, MM = Missing Value Source: NWS Daily Summary

Daily Weather History Graph

Daily Weather History Graph

Search for Another Location

Airport or City:

Trip Planner

Search our weather history database for the weather conditions in past years. The results will help you decide how hot, cold, wet, or windy it might be!

Date:

Astronomy

Oct. 09, 2013 Rise Set
Actual Time 7:15 AM EDT 6:47 PM EDT
Civil Twilight 6:50 AM EDT 7:13 PM EDT
Nautical Twilight 6:21 AM EDT 7:42 PM EDT
Astronomical Twilight 5:52 AM EDT 8:11 PM EDT
Moon 11:59 AM EDT (10/9) 10:30 PM EDT (10/9)
Length of Visible Light 12h 22m
Length of Day
11h 32m
Waxing Crescent, 25% of the Moon is Illuminated
Oct 9
Waxing Crescent
Oct 11
First Quarter
Oct 18
Full
Oct 26
Last Quarter
Nov 3
New

Hourly Weather History & Observations

Time (EDT) Temp. Dew Point Humidity Pressure Visibility Wind Dir Wind Speed Gust Speed Precip Events Conditions
12:15 AM 57.6 °F 52.9 °F 84% 30.08 in 10.0 mi NNE 8.1 mph - N/A Rain Light Rain
12:35 AM 57.4 °F 53.1 °F 85% 30.07 in 10.0 mi NNE 8.1 mph - 0.01 in Rain Light Rain
12:55 AM 57.4 °F 53.2 °F 86% 30.06 in 10.0 mi North 10.4 mph 18.4 mph 0.01 in Rain Light Rain
1:15 AM 57.2 °F 53.6 °F 88% 30.06 in 10.0 mi NNE 9.2 mph - N/A   Drizzle
1:35 AM 57.4 °F 53.6 °F 87% 30.06 in 10.0 mi NNE 8.1 mph 17.3 mph N/A   Light Drizzle
1:55 AM 57.7 °F 53.6 °F 86% 30.06 in 10.0 mi NNE 8.1 mph 17.3 mph N/A   Scattered Clouds
2:15 AM 58.1 °F 53.6 °F 85% 30.06 in 10.0 mi North 8.1 mph - N/A   Light Drizzle
2:35 AM 58.1 °F 53.8 °F 86% 30.05 in 10.0 mi North 9.2 mph - N/A   Light Drizzle
2:55 AM 58.1 °F 54.0 °F 86% 30.05 in 10.0 mi North 10.4 mph 16.1 mph N/A   Light Drizzle
3:15 AM 57.9 °F 54.3 °F 88% 30.05 in 10.0 mi NNE 6.9 mph - N/A   Drizzle
3:35 AM 58.1 °F 54.3 °F 87% 30.05 in 10.0 mi NNE 8.1 mph - N/A   Light Drizzle
3:55 AM 58.3 °F 54.3 °F 87% 30.04 in 10.0 mi North 8.1 mph 16.1 mph N/A   Overcast
4:15 AM 58.3 °F 54.1 °F 86% 30.04 in 10.0 mi North 8.1 mph - N/A   Scattered Clouds
4:35 AM 58.3 °F 54.1 °F 86% 30.04 in 10.0 mi North 6.9 mph - N/A   Scattered Clouds
4:55 AM 58.5 °F 54.1 °F 86% 30.04 in 10.0 mi North 8.1 mph - N/A   Mostly Cloudy
5:15 AM 58.6 °F 54.1 °F 85% 30.04 in 10.0 mi North 6.9 mph - N/A   Overcast
5:35 AM 59.0 °F 54.1 °F 84% 30.05 in 10.0 mi North 6.9 mph - N/A   Overcast
5:55 AM 59.0 °F 54.0 °F 83% 30.05 in 10.0 mi NNE 5.8 mph 17.3 mph N/A   Overcast
6:15 AM 59.0 °F 54.1 °F 84% 30.06 in 10.0 mi North 6.9 mph - N/A   Overcast
6:35 AM 59.0 °F 54.1 °F 84% 30.06 in 10.0 mi North 5.8 mph - N/A   Overcast
6:55 AM 59.0 °F 54.1 °F 84% 30.06 in 10.0 mi North 6.9 mph - N/A   Overcast
7:15 AM 59.0 °F 54.0 °F 83% 30.06 in 10.0 mi North 5.8 mph - N/A   Overcast
7:35 AM 59.2 °F 53.8 °F 82% 30.06 in 10.0 mi North 6.9 mph - N/A   Overcast
7:55 AM 59.4 °F 53.8 °F 82% 30.07 in 10.0 mi North 8.1 mph - N/A   Overcast
8:15 AM 59.4 °F 53.8 °F 82% 30.07 in 10.0 mi North 9.2 mph - N/A   Overcast
8:35 AM 59.5 °F 53.8 °F 81% 30.08 in 10.0 mi North 5.8 mph - N/A   Overcast
8:55 AM 59.9 °F 54.0 °F 81% 30.08 in 10.0 mi North 8.1 mph 16.1 mph N/A   Overcast
9:15 AM 60.4 °F 54.1 °F 80% 30.08 in 10.0 mi North 9.2 mph - N/A   Overcast
9:35 AM 61.0 °F 54.3 °F 79% 30.08 in 10.0 mi North 6.9 mph - N/A   Mostly Cloudy
9:55 AM 61.3 °F 54.5 °F 78% 30.08 in 10.0 mi North 5.8 mph - N/A   Overcast
10:15 AM 62.1 °F 54.9 °F 77% 30.08 in 10.0 mi North 8.1 mph - N/A   Overcast
10:35 AM 63.0 °F 55.4 °F 76% 30.08 in 10.0 mi North 9.2 mph - N/A   Overcast
10:55 AM 64.6 °F 56.1 °F 74% 30.08 in 10.0 mi NNE 8.1 mph - N/A   Overcast
11:15 AM 64.0 °F 55.8 °F 74% 30.08 in 10.0 mi North 8.1 mph 19.6 mph N/A   Overcast
11:35 AM 64.4 °F 55.9 °F 74% 30.08 in 10.0 mi North 12.7 mph 19.6 mph N/A   Overcast
11:55 AM 66.2 °F 56.8 °F 72% 30.08 in 10.0 mi North 9.2 mph 16.1 mph N/A   Overcast
12:15 PM 65.5 °F 56.5 °F 73% 30.08 in 10.0 mi North 6.9 mph 17.3 mph N/A   Overcast
12:35 PM 66.0 °F 56.8 °F 72% 30.07 in 10.0 mi North 8.1 mph 16.1 mph N/A   Overcast
12:55 PM 66.6 °F 57.2 °F 72% 30.07 in 10.0 mi North 10.4 mph - N/A   Overcast
1:15 PM 66.4 °F 57.2 °F 72% 30.07 in 10.0 mi North 8.1 mph 17.3 mph N/A   Overcast
1:35 PM 66.2 °F 57.2 °F 73% 30.06 in 10.0 mi North 8.1 mph 16.1 mph N/A   Overcast
1:55 PM 66.4 °F 57.2 °F 72% 30.05 in 10.0 mi North 9.2 mph - N/A   Overcast
2:15 PM 66.2 °F 57.2 °F 73% 30.05 in 10.0 mi NNW 5.8 mph - N/A   Overcast
2:35 PM 64.9 °F 57.6 °F 77% 30.05 in 10.0 mi North 3.5 mph - N/A   Overcast
2:55 PM 64.4 °F 57.4 °F 78% 30.04 in 10.0 mi North 6.9 mph - N/A   Overcast
3:15 PM 65.3 °F 57.9 °F 77% 30.04 in 10.0 mi North 8.1 mph - N/A   Overcast
3:35 PM 65.7 °F 57.7 °F 76% 30.04 in 10.0 mi North 5.8 mph - N/A   Overcast
3:55 PM 66.2 °F 58.1 °F 75% 30.04 in 10.0 mi North 8.1 mph - N/A   Overcast
4:15 PM 66.2 °F 57.6 °F 74% 30.04 in 10.0 mi North 9.2 mph 16.1 mph N/A   Overcast
4:55 PM 62.8 °F 59.4 °F 89% 30.04 in 5.0 mi North 6.9 mph - N/A   Drizzle
5:15 PM 62.8 °F 59.9 °F 90% 30.04 in 10.0 mi NNW 3.5 mph - N/A   Overcast
5:35 PM 63.7 °F 58.8 °F 84% 30.03 in 10.0 mi North 5.8 mph - N/A   Overcast
5:55 PM 63.9 °F 57.9 °F 81% 30.03 in 10.0 mi North 9.2 mph - N/A   Overcast
6:15 PM 63.5 °F 57.2 °F 80% 30.03 in 10.0 mi North 8.1 mph - N/A   Overcast
6:35 PM 63.5 °F 56.7 °F 78% 30.03 in 10.0 mi North 6.9 mph - N/A   Overcast
6:55 PM 63.0 °F 56.5 °F 79% 30.03 in 10.0 mi North 6.9 mph - N/A   Overcast
7:15 PM 62.8 °F 56.1 °F 79% 30.03 in 10.0 mi North 8.1 mph - N/A   Overcast
7:55 PM 61.9 °F 56.1 °F 81% 30.03 in 10.0 mi North 5.8 mph - N/A   Overcast
8:15 PM 61.9 °F 55.8 °F 80% 30.03 in 10.0 mi NNW 4.6 mph - N/A   Overcast
8:35 PM 61.3 °F 55.4 °F 81% 30.03 in 10.0 mi North 9.2 mph - N/A   Overcast
8:55 PM 61.0 °F 55.4 °F 82% 30.04 in 10.0 mi North 6.9 mph - N/A   Overcast
9:15 PM 60.8 °F 55.4 °F 82% 30.03 in 10.0 mi North 6.9 mph - N/A   Overcast
9:35 PM 60.8 °F 55.4 °F 82% 30.03 in 10.0 mi North 8.1 mph - N/A   Overcast
9:55 PM 60.6 °F 55.4 °F 83% 30.04 in 10.0 mi North 6.9 mph - N/A   Overcast
10:15 PM 60.3 °F 55.0 °F 83% 30.04 in 10.0 mi NNW 8.1 mph 19.6 mph N/A   Overcast
10:35 PM 60.1 °F 55.0 °F 83% 30.04 in 10.0 mi North 9.2 mph - N/A   Overcast
10:55 PM 59.9 °F 54.9 °F 83% 30.03 in 10.0 mi North 6.9 mph - N/A   Overcast
11:15 PM 59.9 °F 54.9 °F 83% 30.03 in 10.0 mi North 8.1 mph - N/A   Overcast
11:35 PM 59.9 °F 54.5 °F 82% 30.03 in 10.0 mi North 6.9 mph - N/A   Overcast
11:55 PM 59.7 °F 54.5 °F 83% 30.02 in 10.0 mi North 6.9 mph - N/A   Overcast